Hollywood, FL

6:14 PM EST on December 07, 2016 (GMT -0500)
North Perry

Weather History for KHWO - July, 2013

Change the Weather History Date:

Saturday, July 6, 2013

  Actual Average (KFLL) Record (KFLL)
Temperature  
Mean Temperature 84 °F 84 °F  
Max Temperature 89 °F 90 °F 97 °F (1954)
Min Temperature 79 °F 78 °F 69 °F (1949)
Degree Days  
Heating Degree Days 0 0  
Month to date heating degree days 0  
Since 1 June heating degree days 0  
Since 1 July heating degree days 0  
Cooling Degree Days 18 19  
Month to date cooling degree days 114  
Year to date cooling degree days 2075  
Since 1 June cooling degree days 657  
Growing Degree Days 34 (Base 50)    
Moisture  
Dew Point 73 °F    
Average Humidity 72    
Maximum Humidity 82    
Minimum Humidity 57    
Precipitation  
Precipitation 0.08 in 0.22 in 2.12 in (1977)
Month to date precipitation 1.37  
Year to date precipitation 29.02  
Snow  
Snow 0.00 in - - ()
Month to date snowfall  
Since 1 June snowfall  
Since 1 July snowfall  
Snow Depth -    
Sea Level Pressure  
Sea Level Pressure 30.09 in    
Wind  
Wind Speed 12 mph (ESE)    
Max Wind Speed 21 mph    
Max Gust Speed 26 mph    
Visibility 10 miles    
Events Rain    
T = Trace of Precipitation, MM = Missing Value Source: NWS Daily Summary

Daily Weather History Graph

Daily Weather History Graph

Search for Another Location

Airport or City:

Trip Planner

Search our weather history database for the weather conditions in past years. The results will help you decide how hot, cold, wet, or windy it might be!

Date:

Astronomy

Jul. 06, 2013 Rise Set
Actual Time 6:34 AM EDT 8:16 PM EDT
Civil Twilight 6:08 AM EDT 8:42 PM EDT
Nautical Twilight 5:37 AM EDT 9:13 PM EDT
Astronomical Twilight 5:05 AM EDT 9:46 PM EDT
Moon 5:14 AM EDT (7/6) 7:02 PM EDT (7/6)
Length of Visible Light 14h 33m
Length of Day
13h 42m
Waning Crescent, 2% of the Moon is Illuminated
Jul 6
Waning Crescent
Jul 8
New
Jul 15
First Quarter
Jul 22
Full
Jul 29
Last Quarter

Hourly Weather History & Observations

Time (EDT) Temp. Heat Index Dew Point Humidity Pressure Visibility Wind Dir Wind Speed Gust Speed Precip Events Conditions
12:53 AM 81.0 °F 85.8 °F 73.0 °F 77% 30.13 in 10.0 mi East 10.4 mph - N/A   Partly Cloudy
1:53 AM 81.0 °F 86.2 °F 73.9 °F 79% 30.11 in 10.0 mi ESE 10.4 mph - N/A   Clear
2:53 AM 81.0 °F 86.2 °F 73.9 °F 79% 30.10 in 10.0 mi ESE 8.1 mph - N/A   Partly Cloudy
3:53 AM 80.1 °F 84.5 °F 73.9 °F 81% 30.06 in 10.0 mi East 10.4 mph 17.3 mph N/A   Clear
4:53 AM 79.0 °F - 73.0 °F 82% 30.05 in 10.0 mi East 9.2 mph - N/A   Clear
5:53 AM 81.0 °F 85.8 °F 73.0 °F 77% 30.07 in 10.0 mi ESE 9.2 mph - N/A   Mostly Cloudy
6:02 AM 80.6 °F 85.4 °F 73.4 °F 79% 30.07 in 10.0 mi ESE 9.2 mph - N/A   Overcast
6:12 AM 80.6 °F 85.4 °F 73.4 °F 79% 30.07 in 10.0 mi ESE 10.4 mph - N/A   Overcast
6:53 AM 81.0 °F 85.8 °F 73.0 °F 77% 30.08 in 10.0 mi ESE 10.4 mph - N/A   Overcast
7:53 AM 81.0 °F 85.8 °F 73.0 °F 77% 30.09 in 10.0 mi ESE 12.7 mph - 0.00 in   Scattered Clouds
8:53 AM 84.0 °F 89.6 °F 72.0 °F 67% 30.11 in 10.0 mi ESE 15.0 mph 21.9 mph N/A   Partly Cloudy
9:53 AM 86.0 °F 92.2 °F 72.0 °F 63% 30.11 in 10.0 mi ESE 15.0 mph - N/A   Mostly Cloudy
10:53 AM 84.9 °F 90.7 °F 72.0 °F 65% 30.12 in 10.0 mi ESE 13.8 mph 21.9 mph N/A   Scattered Clouds
11:53 AM 86.0 °F 92.2 °F 72.0 °F 63% 30.12 in 10.0 mi East 16.1 mph - N/A   Partly Cloudy
12:53 PM 87.1 °F 93.6 °F 72.0 °F 61% 30.12 in 10.0 mi ESE 13.8 mph 23.0 mph N/A   Mostly Cloudy
1:53 PM 84.0 °F 91.9 °F 75.0 °F 74% 30.12 in 10.0 mi SE 13.8 mph 20.7 mph 0.00 in Rain Light Rain
2:53 PM 88.0 °F 94.7 °F 72.0 °F 59% 30.11 in 10.0 mi East 15.0 mph - 0.00 in   Partly Cloudy
3:53 PM 88.0 °F 93.8 °F 71.1 °F 57% 30.08 in 10.0 mi ESE 12.7 mph 23.0 mph N/A   Scattered Clouds
4:53 PM 86.0 °F 93.0 °F 73.0 °F 65% 30.07 in 10.0 mi East 20.7 mph 26.5 mph 0.01 in   Mostly Cloudy
5:53 PM 84.9 °F 92.1 °F 73.9 °F 69% 30.05 in 10.0 mi East 16.1 mph - 0.07 in   Clear
6:53 PM 82.9 °F 88.8 °F 73.0 °F 72% 30.06 in 10.0 mi East 17.3 mph 24.2 mph N/A   Mostly Cloudy
7:11 PM 84.2 °F 90.9 °F 73.4 °F 70% 30.06 in 10.0 mi East 12.7 mph - N/A   Mostly Cloudy
7:30 PM 84.2 °F 90.9 °F 73.4 °F 70% 30.07 in 10.0 mi East 16.1 mph 20.7 mph N/A   Mostly Cloudy
7:53 PM 82.0 °F 87.9 °F 73.9 °F 76% 30.08 in 10.0 mi East 17.3 mph - N/A   Mostly Cloudy
8:53 PM 82.0 °F 87.4 °F 73.0 °F 74% 30.09 in 10.0 mi East 12.7 mph - N/A   Mostly Cloudy
9:53 PM 82.0 °F 87.4 °F 73.0 °F 74% 30.10 in 10.0 mi ESE 8.1 mph - N/A   Partly Cloudy
10:53 PM 82.0 °F 87.4 °F 73.0 °F 74% 30.12 in 10.0 mi ESE 9.2 mph - N/A   Scattered Clouds
11:53 PM 82.0 °F 87.9 °F 73.9 °F 76% 30.12 in 10.0 mi ESE 10.4 mph - N/A   Scattered Clouds